Wind_Speed
7 6 5 5 5 3 3 2 2 4 3 4 4 3 5 4 3 5 6 5 5 6 8 8 7 9 9 11 12 11 8 11 11
3 3 3 3 4 3 3 3 3 2 2 4 5 5 6 6 4 5 7 8 9 10 8 10 10 11 12 13 13 11 11 14 11
3 3 1 1 1 4 5 3 3 4 4 2 3 6 7 10 10 10 11 12 14 13 12 11 12 12 13 12 12 12 15 14 11
5 5 6 5 5 4 3 5 6 4 6 6 5 7 8 10 12 13 12 12 13 14 13 13 12 13 12 13 14 12 13 12 11
6 7 8 7 7 6 4 4 4 2 5 8 9 7 8 9 12 15 16 15 14 13 14 15 12 14 13 13 15 10 11 14 11
7 7 8 6 7 6 6 6 4 2 2 7 10 10 9 8 7 8 13 15 14 18 14 12 17 14 15 13 14 9 12 14 13
6 6 5 5 6 6 7 7 8 6 5 5 7 9 10 10 7 6 8 10 10 13 19 16 16 18 16 15 13 12 14 14 16
8 6 5 4 3 4 5 6 7 8 8 8 8 9 11 11 10 6 4 8 8 10 11 15 16 20 19 16 14 13 13 15 15
9 7 7 6 5 4 3 4 5 6 7 9 11 11 11 12 12 11 7 9 9 11 16 17 21 19 22 19 17 14 15 16 15
9 8 7 6 6 6 6 6 5 5 6 8 8 10 13 14 14 14 13 13 14 15 15 14 16 20 24 22 20 18 17 18 18
11 9 7 7 7 7 8 9 9 9 8 8 10 10 11 12 16 18 19 20 19 19 20 19 16 14 23 26 24 21 19 19 19
11 10 8 8 8 8 8 9 10 11 11 11 10 10 11 13 14 15 20 23 24 25 24 23 23 22 19 26 28 25 23 21 21
12 10 9 8 8 8 9 10 11 12 13 13 13 12 11 12 15 17 19 20 22 28 30 29 26 28 27 22 28 29 25 23 24
11 9 8 7 7 9 10 12 14 15 16 16 15 15 14 11 16 19 22 24 26 27 28 34 32 28 28 27 24 32 30 26 25
10 8 7 6 7 9 11 13 14 16 18 18 20 19 13 22 14 24 23 24 27 31 32 32 36 35 31 32 31 27 34 31 27
10 8 7 7 8 9 11 12 14 16 19 20 26 19 13 7 23 28 29 25 23 27 33 33 32 38 38 35 32 32 32 36 32
10 9 8 8 8 9 10 12 13 15 17 18 22 11 18 8 38 24 29 31 30 28 27 34 32 31 37 36 34 36 34 36 37
11 11 9 9 10 10 11 12 13 16 15 16 14 9 7 38 11 34 31 32 31 31 30 29 36 31 32 37 42 32 37 35 38
13 12 11 11 12 12 12 12 13 15 19 17 14 16 22 26 28 34 37 33 37 37 36 37 34 34 34 36 39 46 35 37 38
14 13 12 13 13 13 12 11 13 15 17 18 18 20 22 23 26 38 48 43 38 41 41 44 39 39 34 33 36 45 29 39 38
Wind_Direction
82 90 94 102 105 110 132 142 142 154 155 163 166 176 192 189 192 210 209 218 243 238 230 231 267 288 291 284 280 280 243 228 211
73 96 110 123 142 140 152 181 202 187 188 176 176 208 204 219 222 246 252 261 261 249 252 250 275 292 295 289 286 278 241 243 213
5 344 298 236 204 198 171 165 201 210 201 198 199 232 219 224 237 251 261 270 265 259 256 248 281 293 299 285 281 275 239 249 224
317 313 300 291 266 264 235 215 210 211 201 186 190 245 249 242 238 245 256 267 271 265 266 261 278 291 297 292 286 263 242 223 201
297 292 294 298 300 297 286 271 262 227 214 215 193 220 265 269 257 245 253 268 269 263 266 269 265 289 294 295 295 248 225 230 207
300 294 288 289 287 288 288 291 293 263 258 220 209 208 223 251 269 267 269 272 268 259 268 278 264 290 293 292 291 257 229 231 206
310 305 298 286 273 272 279 281 285 286 270 257 234 230 235 247 248 268 271 280 278 272 252 278 273 270 290 286 283 258 227 230 219
319 314 310 301 284 289 288 287 282 274 265 261 260 256 259 263 261 262 278 294 280 284 256 272 286 259 281 279 280 265 235 228 226
309 309 309 311 318 326 314 305 306 303 288 269 261 264 264 264 261 257 262 246 241 260 262 269 284 266 261 273 274 265 246 232 222
303 301 300 303 314 315 317 318 309 304 304 302 293 273 265 264 261 256 257 258 253 249 258 271 280 263 258 263 261 265 254 240 227
300 296 295 298 302 307 312 315 317 315 310 300 303 302 299 287 272 264 257 258 260 262 262 256 256 264 259 254 258 262 255 248 230
294 291 290 292 299 308 314 318 319 319 320 318 311 304 304 300 299 291 277 263 261 264 266 260 253 249 255 254 250 256 251 246 241
285 281 281 291 301 312 321 325 329 329 327 324 323 324 316 312 305 302 300 296 285 269 268 267 259 249 255 251 248 249 248 243 240
276 272 276 289 308 322 329 334 335 336 335 333 332 330 328 325 325 320 315 307 301 295 279 269 266 257 249 245 250 245 245 243 240
274 273 281 290 311 324 329 335 337 341 341 337 335 336 336 336 341 332 321 313 304 298 293 283 269 262 255 243 243 244 244 244 241
264 264 273 286 309 321 327 331 333 336 340 336 333 339 332 296 336 335 333 327 313 303 296 291 281 268 258 249 244 239 240 241 236
254 256 262 279 300 307 313 317 321 324 333 335 340 329 323 240 325 328 327 325 322 310 298 292 293 281 270 259 245 236 233 233 234
253 257 263 278 293 294 297 305 312 318 322 323 330 327 306 322 305 322 322 324 319 314 309 300 293 287 284 268 249 250 229 230 226
251 253 263 280 285 286 292 300 309 313 316 316 317 310 313 321 321 319 312 318 319 318 313 308 297 290 288 284 258 247 225 227 227
245 252 264 281 280 279 288 296 309 315 319 317 316 313 311 312 308 307 312 312 316 314 311 310 302 295 287 282 272 257 248 217 222
Height
1550 1549 1548 1547 1546 1546 1546 1546 1546 1546 1546 1547 1547 1548 1549 1549 1549 1550 1550 1550 1550 1550 1550 1550 1550 1550 1550 1549 1548 1547 1547 1545 1545
1549 1548 1547 1546 1545 1545 1545 1545 1545 1545 1546 1546 1547 1547 1548 1549 1549 1550 1550 1550 1550 1550 1550 1550 1550 1549 1550 1549 1548 1547 1546 1545 1544
1550 1549 1547 1546 1545 1543 1543 1543 1543 1543 1544 1546 1547 1547 1547 1547 1548 1548 1549 1549 1548 1549 1548 1548 1548 1549 1548 1548 1548 1547 1547 1546 1544
1550 1549 1547 1546 1544 1543 1543 1542 1541 1542 1542 1543 1545 1545 1545 1545 1546 1547 1547 1547 1547 1547 1547 1548 1547 1547 1547 1547 1547 1547 1546 1546 1545
1549 1548 1546 1545 1544 1543 1542 1541 1541 1541 1540 1541 1541 1542 1543 1543 1543 1544 1545 1545 1546 1545 1546 1546 1547 1545 1545 1545 1545 1545 1546 1546 1546
1549 1548 1546 1545 1543 1542 1541 1540 1540 1540 1539 1539 1539 1540 1539 1539 1540 1541 1542 1543 1543 1543 1544 1545 1545 1545 1544 1544 1544 1543 1546 1546 1547
1548 1546 1545 1544 1543 1542 1541 1540 1539 1539 1539 1538 1538 1538 1537 1536 1536 1538 1539 1539 1540 1540 1542 1542 1543 1543 1542 1542 1543 1542 1545 1545 1546
1547 1545 1544 1543 1542 1541 1540 1539 1538 1537 1537 1537 1536 1536 1536 1535 1535 1535 1536 1537 1538 1539 1539 1541 1540 1540 1541 1540 1541 1540 1542 1544 1545
1546 1544 1543 1541 1540 1539 1538 1537 1536 1535 1534 1534 1534 1534 1534 1533 1533 1533 1533 1533 1533 1535 1536 1537 1537 1538 1537 1538 1539 1539 1540 1542 1543
1544 1543 1541 1540 1539 1538 1536 1536 1535 1534 1533 1532 1531 1531 1530 1530 1530 1530 1530 1530 1529 1529 1530 1532 1533 1533 1534 1535 1536 1536 1537 1539 1540
1541 1540 1539 1538 1537 1536 1535 1534 1532 1531 1531 1530 1529 1528 1527 1526 1526 1526 1526 1526 1526 1525 1525 1526 1527 1528 1531 1531 1532 1533 1534 1535 1538
1539 1538 1537 1536 1535 1534 1533 1532 1530 1529 1528 1527 1526 1526 1525 1523 1522 1521 1521 1522 1521 1521 1522 1521 1522 1523 1524 1527 1527 1528 1530 1531 1533
1537 1536 1535 1534 1533 1532 1531 1529 1528 1526 1524 1523 1522 1521 1521 1520 1518 1517 1517 1516 1517 1517 1517 1516 1517 1518 1520 1520 1523 1524 1526 1527 1528
1534 1533 1532 1531 1530 1530 1528 1526 1525 1523 1522 1520 1519 1518 1517 1516 1515 1514 1513 1512 1511 1511 1511 1510 1510 1513 1513 1514 1517 1520 1520 1522 1523
1530 1529 1529 1528 1528 1527 1526 1524 1523 1521 1519 1517 1516 1513 1513 1511 1510 1510 1510 1508 1506 1504 1503 1504 1504 1504 1506 1506 1508 1511 1514 1516 1518
1527 1526 1526 1526 1525 1524 1523 1522 1521 1520 1518 1515 1512 1508 1507 1505 1504 1503 1502 1503 1502 1499 1496 1495 1495 1495 1496 1498 1499 1500 1506 1508 1512
1524 1524 1523 1523 1523 1522 1521 1520 1519 1518 1517 1514 1510 1506 1504 1500 1500 1498 1497 1495 1493 1493 1492 1489 1488 1487 1485 1488 1489 1492 1494 1501 1505
1520 1520 1520 1520 1520 1519 1519 1518 1517 1515 1514 1513 1513 1507 1502 1495 1491 1492 1491 1491 1488 1486 1485 1484 1481 1481 1478 1477 1479 1480 1484 1488 1496
1517 1517 1517 1517 1516 1516 1516 1515 1514 1513 1511 1510 1509 1508 1505 1500 1484 1485 1484 1484 1481 1479 1477 1475 1473 1473 1471 1469 1469 1468 1473 1479 1487
1513 1513 1513 1513 1513 1513 1513 1512 1511 1510 1508 1506 1505 1503 1502 1500 1497 1483 1473 1475 1475 1473 1472 1468 1465 1462 1462 1460 1460 1460 1461 1468 1474